Showing default

EDDA-1 300E, 69017

Orbit data source: Space-Track

EDDA-1 300E, 69017 is a payload satellite owned by Planet (US) in SSO that was launched on Sun, 03 May 2026 UTC via an FALCON 9 launch vehicle from the Air Force Western Test Range (AFWTR). Payload-class satellites include a variety of spacecraft equipped with specific instruments for various scientific and technological missions. These include communications satellites like Starlink; space stations such as the ISS; scientific satellites like the Hubble; Earth observation satellites from companies like Planet Labs, Umbra, and HawkEye 360; GPS; miniature CubeSats for education and research; and military/defense satellites.

Loading next visibility...
Identifier
69017, 2026-100AP
Orbit
SSO
Country
Flag of USUS
Related business
Manufacturer
Planet
Mission
Operational Commercial Imaging
Bus & Motor
PELICAN, XE AOCS
Mass
160 kg wet, 146 kg dry
Launch date (UTC)
2026-05-03 (4 months ago)
Launch vehicle
FALCON 9
Launch site
Air Force Western Test Range (AFWTR)
Object type
Payload
Rocket body
Debris
Shape & HBR
Box + 2 Pan, 1.0 m
Radar Cross Section
1.955 m², Large (>1 m²)

Expand to show TLE details & history
Last TLE update: 22 hours ago

TLE from 22 hours ago
0 EDDA-1 300E
1 69017U 26100AP  26255.27838116  .00002220  00000-0  91597-4 0  9999
2 69017  97.3533 151.7555 0002944 119.1957 240.9576 15.25075121 20077
Epoch: 2026-09-12T06:40Z
TLE epoch observation values (Epoch: 2026-09-12T06:40:52.132Z)
Latitude
0.00001°
Longitude
60.24861°
Altitude
494.641 km
Speed
7.617 km/s
True Right ascension
10h 07m 01s
True Declination
0° 00' 00"
Sunlit
Object was in daylight at epoch
Visualization orbit readout
Latitude
Unknown
Longitude
Unknown
Altitude
Unknown
Speed
Unknown
Apparent Right ascension
Unknown
Apparent Declination
Unknown
Sunlit
N/A
Visualization observer readout
Local Sidereal Time
21:24:34
Azimuth
Unknown
Elevation
Unknown
Doppler factor
Unknown
Orbital elements
Apogee altitude
489.538 km
Perigee altitude
485.495 km
Semi-major axis
6,865.654 km
Eccentricity
0.00029
Inclination
97.3533°
RAAN
151.7555°
Arg. of periapsis
119.1957°
True anomaly
240.92811°
Mean anomaly
240.9576°
Eccentric anomaly
240.94286°
Mean motion
3.81523 °/min
Orbital period
94.36 mins
BSTAR
0.000091597
Loading maneuver chart data...
Computing Atmospheric mass density...
Loading historical data...
Loading historical data...
Loading historical data...
Loading historical data...
Loading historical data...
Loading historical data...
Loading historical data...

Documentation

Showing up to 5 results
|